Location: Cedar Brake
(32.2526°N, 97.8459°W)
Time: 08:34:56
(UTC+00:00)

PAYLOAD B - Pass Details

Date: 22 April 2026
Orbit: 848 x 869 km, 99.0° (Epoch: 15 May)

Event Time Altitude Azimuth Distance (km) Brightness Sun altitude
Exits shadow 02:27:33 27° 131° (SE) 1,580 5.0 -17.1°
Maximum altitude 02:30:14 48° 72° (ENE) 1,102 4.5 -17.6°
Drops below altitude 10° 02:35:28 10° 360° (N) 2,476 7.0 -18.5°
Sets 02:37:54 0° 355° (N) 3,415 7.8 -19.0°
